Location: Unspecified
(0.0000°N, 0.0000°E)
Time: 02:53:01
(UTC+00:00)

Courier 1B - Pass Details

Date: 24 September 2023
Orbit: 962 x 1208 km, 28.3° (Epoch: 15 September)

Event Time Altitude Azimuth Distance (km) Brightness Sun altitude
Rises 06:48:20 0° 208° (SSW) 3,744 10.3 14.0°
Reaches altitude 10° 06:53:31 10° 175° (S) 2,856 10.1 15.3°
Maximum altitude 06:55:32 11° 158° (SSE) 2,787 10.3 15.8°
Drops below altitude 10° 06:57:35 10° 141° (SE) 2,910 10.7 16.3°
Sets 07:03:00 0° 109° (ESE) 3,939 12.1 17.7°
